| time (UTC) | temp C | wind direction | speed KPH | gust KPH | rain 1hr cm | rain 24hr cm | rain mn cm | humidity % | barometer mb |
| 20260503210005 | 16 | 211 | 8.0 | 16.1 | 0.00 | 0.00 | 0.00 | 39 | 1010.0 |
| 20260503204506 | 17 | 243 | 8.0 | 25.7 | 0.00 | 0.00 | 0.00 | 39 | 1010.1 |
| 20260503203003 | 16 | 276 | 4.8 | 17.7 | 0.00 | 0.00 | 0.00 | 41 | 1010.5 |
| 20260503201506 | 16 | 229 | 4.8 | 16.1 | 0.00 | 0.00 | 0.00 | 41 | 1010.4 |
| 20260503200004 | 16 | 272 | 4.8 | 27.4 | 0.00 | 0.00 | 0.00 | 40 | 1010.6 |
| 20260503194503 | 16 | 234 | 3.2 | 16.1 | 0.00 | 0.00 | 0.00 | 41 | 1010.9 |
| 20260503193005 | 16 | 221 | 4.8 | 24.1 | 0.00 | 0.00 | 0.00 | 39 | 1011.0 |
| 20260503191511 | 16 | 252 | 6.4 | 20.9 | 0.00 | 0.00 | 0.00 | 39 | 1011.2 |
| 20260503190007 | 17 | 211 | 9.7 | 32.2 | 0.00 | 0.00 | 0.00 | 39 | 1011.3 |
| 20260503184504 | 17 | 252 | 8.0 | 29.0 | 0.00 | 0.00 | 0.00 | 40 | 1011.6 |
| 20260503183006 | 17 | 302 | 3.2 | 14.5 | 0.00 | 0.00 | 0.00 | 40 | 1011.8 |
| 20260503181504 | 16 | 194 | 4.8 | 14.5 | 0.00 | 0.00 | 0.00 | 39 | 1012.0 |
| 20260503180005 | 15 | 191 | 3.2 | 14.5 | 0.00 | 0.00 | 0.00 | 44 | 1012.3 |
| 20260503174503 | 15 | 258 | 6.4 | 17.7 | 0.00 | 0.00 | 0.00 | 43 | 1012.6 |
| 20260503173003 | 14 | 202 | 1.6 | 11.3 | 0.00 | 0.00 | 0.00 | 46 | 1012.8 |
| 20260503171503 | 14 | 234 | 3.2 | 17.7 | 0.00 | 0.00 | 0.00 | 45 | 1013.1 |
| 20260503081517 | 0 | 223 | 0.0 | 0.0 | 0.00 | 0.03 | 0.00 | 83 | 1015.8 |
| 20260503071505 | 0 | 211 | 0.0 | 0.0 | 0.00 | 0.03 | 0.00 | 87 | 1015.9 |
| 20260503054509 | 0 | 211 | 0.0 | 0.0 | 0.00 | 0.03 | 0.00 | 87 | 1016.6 |
| 20260503053003 | 1 | 211 | 0.0 | 0.0 | 0.00 | 0.03 | 0.00 | 87 | 1016.6 |
| 20260503051505 | 1 | 211 | 0.0 | 0.0 | 0.00 | 0.03 | 0.00 | 86 | 1016.7 |
| 20260503050006 | 1 | 211 | 0.0 | 0.0 | 0.00 | 0.03 | 0.00 | 86 | 1016.7 |
| 20260503044504 | 1 | 211 | 0.0 | 0.0 | 0.00 | 0.05 | 0.00 | 85 | 1016.7 |
| 20260503043004 | 1 | 211 | 0.0 | 0.0 | 0.00 | 0.05 | 0.00 | 85 | 1016.6 |
| 20260503041504 | 1 | 211 | 0.0 | 0.0 | 0.00 | 0.05 | 0.00 | 84 | 1016.7 |
| 20260503040007 | 1 | 211 | 0.0 | 0.0 | 0.00 | 0.05 | 0.00 | 84 | 1016.8 |
| 20260503034503 | 1 | 211 | 0.0 | 0.0 | 0.00 | 0.05 | 0.05 | 82 | 1016.8 |
| 20260503033007 | 1 | 211 | 0.0 | 0.0 | 0.00 | 0.05 | 0.05 | 83 | 1016.9 |
| 20260503031503 | 2 | 211 | 0.0 | 0.0 | 0.00 | 0.05 | 0.05 | 82 | 1017.0 |
| 20260503030007 | 2 | 211 | 0.0 | 0.0 | 0.00 | 0.05 | 0.05 | 80 | 1017.0 |
| 20260503024502 | 2 | 211 | 0.0 | 0.0 | 0.00 | 0.05 | 0.05 | 79 | 1017.2 |
| 20260503023002 | 2 | 211 | 0.0 | 0.0 | 0.00 | 0.05 | 0.05 | 75 | 1017.2 |
| 20260503021502 | 2 | 211 | 0.0 | 0.0 | 0.00 | 0.05 | 0.05 | 75 | 1017.1 |
| 20260503020005 | 3 | 211 | 0.0 | 0.0 | 0.00 | 0.05 | 0.05 | 73 | 1016.8 |
| 20260503014502 | 3 | 211 | 0.0 | 0.0 | 0.00 | 0.05 | 0.05 | 74 | 1016.7 |
| 20260503013003 | 4 | 211 | 0.0 | 0.0 | 0.00 | 0.05 | 0.05 | 71 | 1016.8 |
| 20260503011506 | 5 | 211 | 0.0 | 0.0 | 0.00 | 0.05 | 0.05 | 64 | 1016.8 |
| 20260503010004 | 5 | 211 | 0.0 | 0.0 | 0.00 | 0.05 | 0.05 | 60 | 1016.7 |
| 20260503004503 | 6 | 211 | 0.0 | 0.0 | 0.00 | 0.05 | 0.05 | 56 | 1016.5 |
| 20260503003003 | 7 | 211 | 0.0 | 0.0 | 0.00 | 0.05 | 0.05 | 51 | 1016.5 |
| 20260503001503 | 7 | 248 | 0.0 | 0.0 | 0.00 | 0.05 | 0.05 | 50 | 1016.6 |
| 20260503000007 | 8 | 256 | 0.0 | 3.2 | 0.00 | 0.05 | 0.05 | 46 | 1016.6 |
| 20260502234503 | 8 | 294 | 0.0 | 0.0 | 0.00 | 0.05 | 0.05 | 48 | 1016.5 |
| 20260502233003 | 8 | 194 | 0.0 | 0.0 | 0.00 | 0.05 | 0.05 | 48 | 1016.6 |
| 20260502231502 | 8 | 248 | 0.0 | 3.2 | 0.00 | 0.05 | 0.05 | 49 | 1016.6 |
| 20260502230005 | 8 | 303 | 0.0 | 4.8 | 0.00 | 0.05 | 0.05 | 45 | 1016.6 |
| 20260502224506 | 8 | 248 | 0.0 | 3.2 | 0.00 | 0.08 | 0.05 | 49 | 1016.6 |
| 20260502223006 | 8 | 235 | 0.0 | 0.0 | 0.00 | 0.08 | 0.05 | 47 | 1016.6 |
| 20260502221503 | 8 | 290 | 0.0 | 3.2 | 0.00 | 0.08 | 0.05 | 45 | 1016.8 |
| 20260502220005 | 8 | 219 | 0.0 | 3.2 | 0.00 | 0.08 | 0.05 | 46 | 1016.7 |
| 20260502214504 | 8 | 219 | 0.0 | 6.4 | 0.00 | 0.08 | 0.05 | 44 | 1016.6 |
| 20260502213008 | 8 | 250 | 0.0 | 6.4 | 0.00 | 0.08 | 0.05 | 48 | 1016.7 |
| 20260502211503 | 8 | 328 | 0.0 | 6.4 | 0.00 | 0.08 | 0.05 | 47 | 1016.8 |